Tracking 28790 objects as of 19-Apr-2024
HD Live streaming from Space Station
objects crossing your sky now

FENGYUN 1C DEB

Track FENGYUN 1C DEB now!
10-day predictions


NORAD ID: 31513
Int'l Code: 1999-025BXC
Perigee: 802.3 km
Apogee: 848.8 km
Inclination: 98.9 °
Period: 101.3 minutes
Semi major axis: 7196 km
RCS: 0.0086 m2 (small)
Launch date: May 10, 1999
Source: People's Republic of China (PRC)
Launch site: Taiyaun Space Center, China (TSC)

Note: This is SATELLITE DEBRIS
Your satellite tracking list
Your tracking list is empty




NASA's NSSDC Master Catalog

Two Line Element Set (TLE):
1 31513U 99025BXC 24109.05919533  .00012479  00000-0  56229-2 0  9998
2 31513  98.8708 190.9365 0032296  82.9974 277.4874 14.22054347642541
Source of the keplerian elements: AFSPC